Weather History for PAWD - October, 2013

Change the Weather History Date:

Sunday, October 20, 2013

  Actual Average Record
Temperature  
Mean Temperature 42 °F -  
Max Temperature 46 °F 41 °F 52 °F (1963)
Min Temperature 39 °F 32 °F 19 °F (1996)
Degree Days  
Heating Degree Days 22    
Moisture  
Dew Point 40 °F    
Average Humidity 89    
Maximum Humidity 97    
Minimum Humidity 74    
Precipitation  
Precipitation 0.72 in - - ()
Sea Level Pressure  
Sea Level Pressure 29.91 in    
Wind  
Wind Speed 6 mph (SW)    
Max Wind Speed 17 mph    
Max Gust Speed 24 mph    
Visibility 8 miles    
Events Rain    
Averages and records for this station are not official NWS values.
T = Trace of Precipitation, MM = Missing Value Source: NWS Daily Summary

Daily Weather History Graph

Daily Weather History Graph

Search for Another Location

Airport or City:

Trip Planner

Search our weather history database for the weather conditions in past years. The results will help you decide how hot, cold, wet, or windy it might be!

Date:

Astronomy

Oct. 20, 2013 Rise Set
Actual Time 8:51 AM AKDT 6:32 PM AKDT
Civil Twilight 8:07 AM AKDT 7:15 PM AKDT
Nautical Twilight 7:19 AM AKDT 8:04 PM AKDT
Astronomical Twilight 6:30 AM AKDT 8:52 PM AKDT
Moon 7:14 PM AKDT (10/20) 11:09 AM AKDT (10/20)
Length of Visible Light 11h 07m
Length of Day
9h 41m
Waning Gibbous, 96% of the Moon is Illuminated
Oct 20
Waning Gibbous
Oct 26
Last Quarter
Nov 3
New
Nov 9
First Quarter
Nov 17
Full

Hourly Weather History & Observations

Time (AKDT) Temp. Windchill Dew Point Humidity Pressure Visibility Wind Dir Wind Speed Gust Speed Precip Events Conditions
12:24 AM 46.4 °F 41.5 °F 42.8 °F 87% 29.75 in 10.0 mi South 10.4 mph 24.2 mph 0.00 in   Overcast
12:53 AM 46.9 °F - 42.1 °F 83% 29.77 in 10.0 mi SSE 15.0 mph 21.9 mph 0.01 in   Overcast
1:53 AM 46.9 °F - 41.0 °F 80% 29.78 in 10.0 mi SSE 13.8 mph 24.2 mph N/A   Mostly Cloudy
2:18 AM 46.4 °F 39.8 °F 39.2 °F 76% 29.79 in 10.0 mi SSE 16.1 mph 24.2 mph N/A   Mostly Cloudy
2:34 AM 46.4 °F 39.5 °F 41.0 °F 81% 29.79 in 10.0 mi SSE 17.3 mph - N/A   Mostly Cloudy
2:48 AM 46.4 °F 41.5 °F 39.2 °F 76% 29.80 in 10.0 mi South 10.4 mph 23.0 mph N/A   Mostly Cloudy
2:53 AM 46.9 °F - 39.9 °F 77% 29.81 in 10.0 mi South 6.9 mph 23.0 mph N/A   Mostly Cloudy
3:53 AM 46.9 °F - 39.0 °F 74% 29.81 in 10.0 mi SSE 9.2 mph 20.7 mph 0.00 in   Mostly Cloudy
4:53 AM 46.0 °F 39.9 °F 39.9 °F 79% 29.82 in 10.0 mi SSE 13.8 mph - N/A   Overcast
5:53 AM 46.0 °F 43.9 °F 39.9 °F 79% 29.83 in 10.0 mi South 4.6 mph 17.3 mph 0.00 in   Overcast
6:53 AM 43.0 °F - 39.0 °F 86% 29.84 in 10.0 mi Calm Calm - 0.04 in Rain Light Rain
7:25 AM 42.8 °F 38.6 °F 39.2 °F 87% 29.86 in 5.0 mi SSE 6.9 mph - 0.03 in Rain Light Rain
7:33 AM 42.8 °F 41.1 °F 39.2 °F 87% 29.86 in 9.0 mi SSW 3.5 mph - 0.03 in Rain Light Rain
7:39 AM 42.8 °F - 39.2 °F 87% 29.86 in 10.0 mi Calm Calm - 0.03 in Rain Light Rain
7:53 AM 42.1 °F 40.2 °F 39.9 °F 92% 29.86 in 10.0 mi North 3.5 mph - 0.04 in   Overcast
8:34 AM 41.0 °F 38.0 °F 39.2 °F 93% 29.87 in 10.0 mi North 4.6 mph - 0.00 in Rain Light Rain
8:53 AM 41.0 °F - 39.9 °F 96% 29.88 in 4.0 mi Calm Calm - 0.03 in Rain Rain
9:11 AM 41.0 °F 38.0 °F 39.2 °F 93% 29.88 in 10.0 mi NNW 4.6 mph - 0.00 in   Overcast
9:53 AM 42.1 °F - 39.9 °F 92% 29.89 in 10.0 mi Calm Calm - 0.02 in   Overcast
10:13 AM 42.8 °F 40.1 °F 39.2 °F 87% 29.90 in 2.5 mi Variable 4.6 mph - 0.03 in Rain Light Rain
10:20 AM 42.8 °F - 39.2 °F 87% 29.90 in 3.0 mi Calm Calm - 0.04 in Rain Light Rain
10:53 AM 42.1 °F - 41.0 °F 96% 29.91 in 10.0 mi Calm Calm - 0.06 in   Overcast
10:58 AM 42.8 °F - 41.0 °F 93% 29.91 in 10.0 mi Calm Calm - 0.01 in   Overcast
11:13 AM 42.8 °F - 41.0 °F 93% 29.92 in 2.0 mi Calm Calm - 0.06 in Rain Rain
11:23 AM 42.8 °F - 41.0 °F 93% 29.92 in 6.0 mi Calm Calm - 0.07 in Rain Light Rain
11:44 AM 42.8 °F 39.3 °F 41.0 °F 93% 29.91 in 7.0 mi West 5.8 mph - 0.07 in Rain Light Rain
11:53 AM 42.1 °F 40.2 °F 41.0 °F 96% 29.92 in 5.0 mi NNW 3.5 mph - 0.08 in Rain Light Rain
12:00 PM 42.8 °F - 41.0 °F 93% 29.92 in 9.0 mi Calm Calm - 0.00 in Rain Light Rain
12:17 PM 42.8 °F - 41.0 °F 93% 29.92 in 10.0 mi Calm Calm - 0.00 in Rain Light Rain
12:24 PM 42.8 °F 41.1 °F 39.2 °F 87% 29.93 in 8.0 mi NW 3.5 mph - 0.01 in Rain Light Rain
12:53 PM 43.0 °F 40.3 °F 41.0 °F 93% 29.93 in 10.0 mi North 4.6 mph - 0.01 in Rain Light Rain
1:17 PM 42.8 °F - 41.0 °F 93% 29.93 in 10.0 mi Calm Calm - 0.02 in Rain Light Rain
1:28 PM 42.8 °F - 41.0 °F 93% 29.93 in 10.0 mi Calm Calm - 0.02 in Rain Light Rain
1:38 PM 44.6 °F - 39.2 °F 81% 29.94 in 10.0 mi Calm Calm - 0.02 in Rain Light Rain
1:53 PM 43.0 °F - 41.0 °F 93% 29.94 in 10.0 mi Calm Calm - 0.02 in Rain Light Rain
2:16 PM 44.6 °F - 42.8 °F 93% 29.94 in 10.0 mi Calm Calm - 0.00 in   Overcast
2:27 PM 44.6 °F - 42.8 °F 93% 29.94 in 10.0 mi Calm Calm - 0.00 in   Overcast
2:53 PM 45.0 °F - 42.1 °F 90% 29.94 in 10.0 mi Calm Calm - 0.00 in   Mostly Cloudy
3:53 PM 46.0 °F 42.5 °F 39.9 °F 79% 29.93 in 10.0 mi SSW 6.9 mph - N/A   Clear
4:53 PM 44.1 °F 36.8 °F 39.0 °F 82% 29.94 in 7.0 mi South 16.1 mph 21.9 mph 0.01 in Rain Light Rain
5:53 PM 43.0 °F - 39.9 °F 89% 29.95 in 10.0 mi Calm Calm - 0.01 in   Overcast
6:08 PM 42.8 °F - 41.0 °F 93% 29.95 in 10.0 mi Calm Calm - 0.00 in Rain Light Rain
6:30 PM 42.8 °F - 39.2 °F 87% 29.96 in 5.0 mi Calm Calm - 0.05 in Rain Rain
6:37 PM 42.8 °F - 39.2 °F 87% 29.96 in 9.0 mi Calm Calm - 0.05 in Rain Light Rain
6:53 PM 42.1 °F 40.2 °F 39.9 °F 92% 29.96 in 10.0 mi NNW 3.5 mph - 0.05 in   Overcast
7:36 PM 41.0 °F 39.0 °F 39.2 °F 93% 29.96 in 5.0 mi WSW 3.5 mph - 0.02 in Rain Rain
7:53 PM 41.0 °F 38.0 °F 39.0 °F 93% 29.96 in 6.0 mi West 4.6 mph - 0.05 in Rain Light Rain
8:06 PM 41.0 °F - 39.2 °F 93% 29.97 in 4.0 mi Calm Calm - 0.04 in Rain Rain
8:53 PM 39.9 °F - 39.0 °F 97% 29.98 in 9.0 mi Calm Calm - 0.15 in Rain Light Rain
9:31 PM 39.2 °F 35.9 °F 37.4 °F 93% 29.97 in 9.0 mi North 4.6 mph - 0.02 in Rain Light Rain
9:53 PM 39.9 °F - 37.9 °F 93% 29.98 in 10.0 mi Calm Calm - 0.02 in   Overcast
10:34 PM 39.2 °F - 37.4 °F 93% 29.99 in 4.0 mi Calm Calm - 0.06 in Rain Rain
10:44 PM 39.2 °F - 37.4 °F 93% 29.99 in 3.0 mi Calm Calm - 0.10 in Rain Rain
10:53 PM 39.9 °F 37.8 °F 37.9 °F 93% 29.99 in 6.0 mi NE 3.5 mph - 0.11 in Rain Light Rain
11:35 PM 39.2 °F 35.9 °F 37.4 °F 93% 30.00 in 10.0 mi NNW 4.6 mph - 0.01 in Rain Light Rain
11:53 PM 39.0 °F 36.8 °F 37.9 °F 96% 30.00 in 10.0 mi North 3.5 mph - 0.01 in   Overcast